• In Portugal
  • List of Countries
  • For 7 days
  • Water Temperature
  • Satellite Maps
  • Weather Map
  • Weather Widgets
  • user-avatar
    Login

    Hourly Weather Dipayal

    Today, 19 October, Thursday

    Time Temperature Precipitation Wind Pressure Humidity
    00:00 +23°C° 0 mm 1 mps 703 mmHg 78%
    01:00 +23°C° 0 mm 1 mps 703 mmHg 78%
    02:00 +23°C° 0 mm 1 mps 703 mmHg 78%
    03:00 +23°C° 0 mm 1 mps 703 mmHg 77%
    04:00 +21°C° 0 mm 2 mps 703 mmHg 76%
    05:00 +21°C° 0 mm 2 mps 703 mmHg 75%
    06:00 +25°C° 0 mm 1 mps 703 mmHg 68%
    07:00 +27°C° 0 mm 1 mps 704 mmHg 62%
    08:00 +29°C° 0 mm 1 mps 704 mmHg 56%
    09:00 +30°C° 0 mm 1 mps 704 mmHg 50%
    10:00 +32°C° 0 mm 1 mps 704 mmHg 45%
    11:00 +35°C° 0 mm 2 mps 704 mmHg 39%
    12:00 +35°C° 0 mm 2 mps 703 mmHg 40%
    13:00 +34°C° 0 mm 2 mps 703 mmHg 40%
    14:00 +34°C° 0 mm 2 mps 702 mmHg 40%
    15:00 +31°C° 0 mm 1 mps 702 mmHg 50%
    16:00 +29°C° 0 mm 1 mps 701 mmHg 59%
    17:00 +26°C° 0 mm 1 mps 701 mmHg 68%
    18:00 +25°C° 0 mm 1 mps 702 mmHg 70%
    19:00 +25°C° 0 mm 1 mps 702 mmHg 71%
    20:00 +24°C° 0 mm 1 mps 703 mmHg 72%
    21:00 +24°C° 0 mm 1 mps 703 mmHg 72%
    22:00 +24°C° 0 mm 1 mps 703 mmHg 72%
    23:00 +23°C° 0 mm 2 mps 703 mmHg 72%

    Tomorrow, 20 October, Friday

    Time Temperature Precipitation Wind Pressure Humidity
    00:00 +23°C° 0 mm 2 mps 703 mmHg 71%
    01:00 +23°C° 0 mm 2 mps 703 mmHg 71%
    02:00 +23°C° 0 mm 2 mps 703 mmHg 70%
    03:00 +23°C° 0 mm 2 mps 702 mmHg 67%
    04:00 +21°C° 0 mm 2 mps 702 mmHg 65%
    05:00 +21°C° 0 mm 2 mps 702 mmHg 63%
    06:00 +25°C° 0 mm 1 mps 703 mmHg 57%
    07:00 +27°C° 0 mm 1 mps 703 mmHg 50%
    08:00 +27°C° 0 mm 0 mps 704 mmHg 44%
    09:00 +30°C° 0 mm 1 mps 704 mmHg 41%
    10:00 +32°C° 0 mm 1 mps 703 mmHg 37%
    11:00 +34°C° 0 mm 2 mps 703 mmHg 34%
    12:00 +34°C° 0 mm 2 mps 703 mmHg 35%
    13:00 +34°C° 0 mm 2 mps 702 mmHg 37%
    14:00 +34°C° 0 mm 2 mps 701 mmHg 38%
    15:00 +31°C° 0 mm 2 mps 701 mmHg 49%
    16:00 +28°C° 0 mm 1 mps 701 mmHg 60%
    17:00 +25°C° 0 mm 1 mps 701 mmHg 71%
    18:00 +25°C° 0 mm 1 mps 701 mmHg 71%
    19:00 +24°C° 0 mm 1 mps 702 mmHg 72%
    20:00 +24°C° 0 mm 1 mps 702 mmHg 72%
    21:00 +23°C° 0 mm 1 mps 702 mmHg 72%
    22:00 +23°C° 0 mm 2 mps 702 mmHg 71%
    23:00 +23°C° 0 mm 2 mps 702 mmHg 71%

    Day after tomorrow, 21 October, Saturday

    Time Temperature Precipitation Wind Pressure Humidity
    00:00 +23°C° 0 mm 2 mps 702 mmHg 70%
    01:00 +21°C° 0 mm 2 mps 702 mmHg 68%
    02:00 +21°C° 0 mm 2 mps 701 mmHg 67%
    03:00 +21°C° 0 mm 2 mps 701 mmHg 64%
    04:00 +21°C° 0 mm 2 mps 701 mmHg 60%
    05:00 +21°C° 0 mm 2 mps 701 mmHg 57%
    06:00 +24°C° 0 mm 1 mps 702 mmHg 51%
    07:00 +26°C° 0 mm 1 mps 702 mmHg 45%
    08:00 +26°C° 0 mm 0 mps 703 mmHg 40%
    09:00 +30°C° 0 mm 1 mps 702 mmHg 37%
    10:00 +31°C° 0 mm 1 mps 702 mmHg 35%
    11:00 +32°C° 0 mm 2 mps 702 mmHg 32%
    12:00 +32°C° 0 mm 2 mps 701 mmHg 34%
    13:00 +32°C° 0 mm 2 mps 700 mmHg 36%
    14:00 +32°C° 0 mm 2 mps 699 mmHg 38%
    15:00 +30°C° 0 mm 2 mps 699 mmHg 49%
    16:00 +27°C° 0 mm 1 mps 699 mmHg 60%
    17:00 +25°C° 0 mm 1 mps 699 mmHg 71%
    18:00 +24°C° 0 mm 1 mps 699 mmHg 72%
    19:00 +23°C° 0 mm 1 mps 700 mmHg 72%
    20:00 +23°C° 0 mm 1 mps 700 mmHg 73%
    21:00 +23°C° 0 mm 1 mps 700 mmHg 71%
    22:00 +22°C° 0 mm 1 mps 700 mmHg 69%
    23:00 +21°C° 0 mm 2 mps 700 mmHg 68%

    22 October, Sunday

    Time Temperature Precipitation Wind Pressure Humidity
    00:00 +21°C° 0 mm 2 mps 700 mmHg 66%
    01:00 +21°C° 0 mm 2 mps 699 mmHg 65%
    02:00 +21°C° 0 mm 2 mps 699 mmHg 63%
    03:00 +20°C° 0 mm 2 mps 699 mmHg 62%
    04:00 +20°C° 0 mm 2 mps 699 mmHg 60%
    05:00 +20°C° 0 mm 2 mps 699 mmHg 58%
    06:00 +23°C° 0 mm 1 mps 700 mmHg 53%
    07:00 +26°C° 0 mm 1 mps 700 mmHg 49%
    08:00 +26°C° 0 mm 0 mps 701 mmHg 44%
    09:00 +29°C° 0 mm 1 mps 701 mmHg 41%
    10:00 +31°C° 0 mm 1 mps 701 mmHg 39%
    11:00 +32°C° 0 mm 2 mps 700 mmHg 36%
    12:00 +32°C° 0 mm 2 mps 700 mmHg 37%
    13:00 +32°C° 0 mm 2 mps 699 mmHg 39%
    14:00 +32°C° 0 mm 2 mps 699 mmHg 40%
    15:00 +29°C° 0 mm 2 mps 699 mmHg 51%
    16:00 +27°C° 0 mm 1 mps 699 mmHg 62%
    17:00 +24°C° 0 mm 1 mps 699 mmHg 73%
    18:00 +24°C° 0 mm 1 mps 699 mmHg 74%
    19:00 +23°C° 0 mm 1 mps 700 mmHg 75%
    20:00 +23°C° 0 mm 1 mps 700 mmHg 76%
    21:00 +22°C° 0 mm 1 mps 700 mmHg 75%
    22:00 +21°C° 0 mm 2 mps 701 mmHg 74%
    23:00 +21°C° 0 mm 2 mps 701 mmHg 73%

    23 October, Monday

    Time Temperature Precipitation Wind Pressure Humidity
    00:00 +21°C° 0 mm 2 mps 700 mmHg 70%
    01:00 +20°C° 0 mm 2 mps 700 mmHg 67%
    02:00 +20°C° 0 mm 2 mps 700 mmHg 64%
    03:00 +20°C° 0 mm 2 mps 700 mmHg 60%
    04:00 +20°C° 0 mm 2 mps 701 mmHg 57%
    05:00 +20°C° 0 mm 2 mps 701 mmHg 54%
    06:00 +23°C° 0 mm 1 mps 702 mmHg 50%
    07:00 +25°C° 0 mm 1 mps 702 mmHg 45%
    08:00 +25°C° 0 mm 0 mps 703 mmHg 41%
    09:00 +28°C° 0 mm 1 mps 703 mmHg 40%
    10:00 +30°C° 0 mm 1 mps 703 mmHg 39%
    11:00 +31°C° 0 mm 2 mps 702 mmHg 37%
    12:00 +31°C° 0.2 mm 2 mps 702 mmHg 39%
    13:00 +30°C° 0.2 mm 2 mps 701 mmHg 40%
    14:00 +30°C° 0.2 mm 2 mps 701 mmHg 41%
    15:00 +28°C° 0.2 mm 2 mps 701 mmHg 51%
    16:00 +25°C° 0.2 mm 1 mps 701 mmHg 61%
    17:00 +21°C° 0.2 mm 0 mps 701 mmHg 71%
    18:00 +22°C° 0.1 mm 1 mps 701 mmHg 69%
    19:00 +22°C° 0.1 mm 1 mps 702 mmHg 68%
    20:00 +20°C° 0.1 mm 2 mps 702 mmHg 66%
    21:00 +20°C° 0 mm 2 mps 702 mmHg 62%
    22:00 +19°C° 0 mm 2 mps 702 mmHg 58%
    23:00 +19°C° 0 mm 2 mps 702 mmHg 54%

    24 October, Tuesday

    Time Temperature Precipitation Wind Pressure Humidity
    00:00 +19°C° 0 mm 2 mps 702 mmHg 49%
    01:00 +18°C° 0 mm 2 mps 702 mmHg 45%
    02:00 +18°C° 0 mm 2 mps 701 mmHg 40%
    03:00 +18°C° 0 mm 2 mps 702 mmHg 38%
    04:00 +18°C° 0 mm 2 mps 702 mmHg 35%
    05:00 +17°C° 0 mm 2 mps 702 mmHg 32%
    06:00 +20°C° 0 mm 2 mps 702 mmHg 31%
    07:00 +23°C° 0 mm 2 mps 703 mmHg 30%
    08:00 +25°C° 0 mm 1 mps 704 mmHg 30%
    09:00 +27°C° 0 mm 1 mps 704 mmHg 27%
    10:00 +29°C° 0 mm 2 mps 703 mmHg 24%
    11:00 +30°C° 0 mm 2 mps 703 mmHg 21%
    12:00 +30°C° 0 mm 2 mps 703 mmHg 23%
    13:00 +30°C° 0 mm 2 mps 702 mmHg 25%
    14:00 +30°C° 0 mm 2 mps 702 mmHg 26%
    15:00 +27°C° 0 mm 1 mps 702 mmHg 36%
    16:00 +24°C° 0 mm 1 mps 702 mmHg 45%
    17:00 +19°C° 0 mm 0 mps 702 mmHg 54%
    18:00 +21°C° 0 mm 1 mps 702 mmHg 53%
    19:00 +20°C° 0 mm 1 mps 702 mmHg 52%
    20:00 +19°C° 0 mm 2 mps 703 mmHg 51%
    21:00 +19°C° 0 mm 2 mps 703 mmHg 50%
    22:00 +18°C° 0 mm 2 mps 703 mmHg 48%
    23:00 +18°C° 0 mm 2 mps 703 mmHg 46%
    Show more